Taylorville, IL

7:55 AM CDT on September 26, 2017 (GMT -0500)
Taylorville Municipal

Weather History for KTAZ - November, 2013

Change the Weather History Date:

Thursday, November 14, 2013

  Actual Average (KSPI) Record (KSPI)
Temperature  
Mean Temperature 40 °F -  
Max Temperature 51 °F 51 °F 77 °F (1960)
Min Temperature 28 °F 34 °F 12 °F (1940)
Degree Days  
Heating Degree Days 26    
Moisture  
Dew Point 24 °F    
Average Humidity 57    
Maximum Humidity 74    
Minimum Humidity 33    
Precipitation  
Precipitation 0.00 in - - ()
Sea Level Pressure  
Sea Level Pressure 30.14 in    
Wind  
Wind Speed 14 mph (South)    
Max Wind Speed 23 mph    
Max Gust Speed 30 mph    
Visibility 10 miles    
Events      
Averages and records for this station are not official NWS values.
T = Trace of Precipitation, MM = Missing Value Source: NWS Daily Summary

Daily Weather History Graph

Daily Weather History Graph

Search for Another Location

Airport or City:

Trip Planner

Search our weather history database for the weather conditions in past years. The results will help you decide how hot, cold, wet, or windy it might be!

Date:

Astronomy

Nov. 14, 2013 Rise Set
Actual Time 6:40 AM CST 4:42 PM CST
Civil Twilight 6:11 AM CST 5:11 PM CST
Nautical Twilight 5:39 AM CST 5:43 PM CST
Astronomical Twilight 5:07 AM CST 6:15 PM CST
Moon 3:03 PM CST (11/14) 3:36 AM CST (11/14)
Length of Visible Light 10h 59m
Length of Day
10h 02m
Waxing Gibbous, 92% of the Moon is Illuminated
Nov 14
Waxing Gibbous
Nov 17
Full
Nov 25
Last Quarter
Dec 2
New
Dec 9
First Quarter

Hourly Weather History & Observations

Time (CST) Temp. Windchill Dew Point Humidity Pressure Visibility Wind Dir Wind Speed Gust Speed Precip Events Conditions
12:15 AM 30.2 °F 21.3 °F 21.2 °F 69% 30.27 in 10.0 mi South 10.4 mph - N/A   Clear
12:35 AM 30.2 °F 20.8 °F 21.2 °F 69% 30.27 in 10.0 mi South 11.5 mph - N/A   Clear
12:55 AM 30.2 °F 20.2 °F 21.2 °F 69% 30.27 in 10.0 mi South 12.7 mph - N/A   Clear
1:15 AM 30.2 °F 21.3 °F 21.2 °F 69% 30.26 in 10.0 mi South 10.4 mph - N/A   Clear
1:35 AM 30.2 °F 20.8 °F 21.2 °F 69% 30.26 in 10.0 mi South 11.5 mph - N/A   Clear
1:55 AM 30.2 °F 21.9 °F 21.2 °F 69% 30.26 in 10.0 mi South 9.2 mph - N/A   Clear
2:15 AM 30.2 °F 21.3 °F 21.2 °F 69% 30.26 in 10.0 mi South 10.4 mph - N/A   Clear
2:35 AM 30.2 °F 21.3 °F 21.2 °F 69% 30.26 in 10.0 mi South 10.4 mph - N/A   Clear
2:55 AM 30.2 °F 21.3 °F 21.2 °F 69% 30.25 in 10.0 mi South 10.4 mph - N/A   Clear
3:15 AM 30.2 °F 21.3 °F 21.2 °F 69% 30.25 in 10.0 mi South 10.4 mph - N/A   Clear
3:35 AM 30.2 °F 20.8 °F 21.2 °F 69% 30.25 in 10.0 mi South 11.5 mph - N/A   Clear
3:55 AM 30.2 °F 21.3 °F 21.2 °F 69% 30.25 in 10.0 mi South 10.4 mph - N/A   Clear
4:15 AM 30.2 °F 20.2 °F 21.2 °F 69% 30.24 in 10.0 mi South 12.7 mph - N/A   Clear
4:35 AM 28.4 °F 18.5 °F 21.2 °F 74% 30.23 in 10.0 mi South 11.5 mph - N/A   Clear
4:55 AM 28.4 °F 18.5 °F 21.2 °F 74% 30.23 in 10.0 mi South 11.5 mph - N/A   Clear
5:15 AM 28.4 °F 18.0 °F 21.2 °F 74% 30.22 in 10.0 mi South 12.7 mph - N/A   Clear
5:35 AM 28.4 °F 17.5 °F 21.2 °F 74% 30.21 in 10.0 mi South 13.8 mph - N/A   Clear
5:55 AM 30.2 °F 18.9 °F 21.2 °F 69% 30.21 in 10.0 mi South 16.1 mph 20.7 mph N/A   Clear
6:15 AM 30.2 °F 19.8 °F 21.2 °F 69% 30.21 in 10.0 mi South 13.8 mph 19.6 mph N/A   Clear
6:35 AM 30.2 °F 19.8 °F 21.2 °F 69% 30.21 in 10.0 mi South 13.8 mph - N/A   Clear
6:55 AM 30.2 °F 18.5 °F 21.2 °F 69% 30.21 in 10.0 mi South 17.3 mph 20.7 mph N/A   Clear
7:15 AM 30.2 °F 19.3 °F 21.2 °F 69% 30.21 in 10.0 mi South 15.0 mph 21.9 mph N/A   Clear
7:35 AM 30.2 °F 19.3 °F 21.2 °F 69% 30.21 in 10.0 mi South 15.0 mph - N/A   Clear
7:55 AM 32.0 °F 21.2 °F 23.0 °F 69% 30.21 in 10.0 mi South 16.1 mph 20.7 mph N/A   Clear
8:15 AM 32.0 °F 20.5 °F 23.0 °F 69% 30.21 in 10.0 mi South 18.4 mph 21.9 mph N/A   Clear
8:35 AM 33.8 °F 23.2 °F 23.0 °F 65% 30.20 in 10.0 mi South 17.3 mph 20.7 mph N/A   Clear
8:55 AM 35.6 °F 25.2 °F 23.0 °F 60% 30.20 in 10.0 mi South 18.4 mph 21.9 mph N/A   Clear
9:15 AM 37.4 °F 26.9 °F 23.0 °F 56% 30.19 in 10.0 mi SSW 20.7 mph 28.8 mph N/A   Clear
9:35 AM 39.2 °F 29.6 °F 23.0 °F 52% 30.19 in 10.0 mi SSW 19.6 mph 26.5 mph N/A   Clear
9:55 AM 41.0 °F 31.4 °F 23.0 °F 49% 30.19 in 10.0 mi SSW 21.9 mph 28.8 mph N/A   Clear
10:15 AM 42.8 °F 34.0 °F 23.0 °F 46% 30.18 in 10.0 mi SSW 20.7 mph 28.8 mph N/A   Clear
10:35 AM 44.6 °F 36.6 °F 23.0 °F 43% 30.16 in 10.0 mi SSW 19.6 mph 25.3 mph N/A   Clear
10:55 AM 46.4 °F 38.3 °F 23.0 °F 40% 30.16 in 10.0 mi SSW 23.0 mph 28.8 mph N/A   Clear
11:15 AM 46.4 °F 38.3 °F 23.0 °F 40% 30.14 in 10.0 mi SSW 23.0 mph 29.9 mph N/A   Clear
11:35 AM 46.4 °F 38.5 °F 23.0 °F 40% 30.13 in 10.0 mi SSW 21.9 mph 28.8 mph N/A   Clear
11:55 AM 50.0 °F - 24.8 °F 37% 30.11 in 10.0 mi SSW 23.0 mph 27.6 mph N/A   Clear
12:15 PM 50.0 °F - 23.0 °F 35% 30.10 in 10.0 mi SSW 19.6 mph - N/A   Clear
12:35 PM 50.0 °F - 23.0 °F 35% 30.10 in 10.0 mi South 19.6 mph - N/A   Clear
12:55 PM 50.0 °F - 23.0 °F 35% 30.09 in 10.0 mi SSW 20.7 mph 25.3 mph N/A   Clear
1:15 PM 51.8 °F - 23.0 °F 33% 30.08 in 10.0 mi SSW 18.4 mph 21.9 mph N/A   Clear
1:35 PM 51.8 °F - 23.0 °F 33% 30.08 in 10.0 mi South 19.6 mph 24.2 mph N/A   Clear
1:55 PM 51.8 °F - 23.0 °F 33% 30.06 in 10.0 mi South 17.3 mph 24.2 mph N/A   Clear
2:15 PM 51.8 °F - 24.8 °F 35% 30.06 in 10.0 mi South 18.4 mph 25.3 mph N/A   Clear
2:35 PM 51.8 °F - 26.6 °F 38% 30.05 in 10.0 mi South 18.4 mph 24.2 mph N/A   Clear
2:55 PM 51.8 °F - 26.6 °F 38% 30.06 in 10.0 mi South 17.3 mph 23.0 mph N/A   Clear
3:15 PM 51.8 °F - 26.6 °F 38% 30.06 in 10.0 mi South 17.3 mph - N/A   Clear
3:35 PM 50.0 °F - 26.6 °F 40% 30.06 in 10.0 mi South 12.7 mph - N/A   Clear
3:55 PM 50.0 °F - 26.6 °F 40% 30.06 in 10.0 mi SSW 15.0 mph - N/A   Clear
4:15 PM 48.2 °F - 26.6 °F 43% 30.05 in 10.0 mi South 16.1 mph 23.0 mph N/A   Clear
4:35 PM 46.4 °F 40.1 °F 26.6 °F 46% 30.05 in 10.0 mi South 15.0 mph - N/A   Clear
4:55 PM 44.6 °F 38.4 °F 26.6 °F 49% 30.05 in 10.0 mi South 12.7 mph - N/A   Clear
5:15 PM 44.6 °F 39.2 °F 28.4 °F 53% 30.06 in 10.0 mi South 10.4 mph - N/A   Clear
5:35 PM 42.8 °F 36.2 °F 28.4 °F 57% 30.05 in 10.0 mi South 12.7 mph - N/A   Clear
5:55 PM 42.8 °F 34.8 °F 28.4 °F 57% 30.05 in 10.0 mi South 17.3 mph - N/A   Clear
6:15 PM 42.8 °F 35.1 °F 28.4 °F 57% 30.05 in 10.0 mi South 16.1 mph - N/A   Clear
6:35 PM 42.8 °F 35.4 °F 28.4 °F 57% 30.05 in 10.0 mi South 15.0 mph - N/A   Clear
6:55 PM 42.8 °F 37.0 °F 28.4 °F 57% 30.06 in 10.0 mi South 10.4 mph - N/A   Clear
7:15 PM 41.0 °F 34.3 °F 28.4 °F 61% 30.05 in 10.0 mi South 11.5 mph - N/A   Clear
7:35 PM 41.0 °F 33.9 °F 28.4 °F 61% 30.04 in 10.0 mi South 12.7 mph - N/A   Clear
7:55 PM 41.0 °F 33.5 °F 28.4 °F 61% 30.04 in 10.0 mi South 13.8 mph - N/A   Clear
8:15 PM 41.0 °F 32.5 °F 28.4 °F 61% 30.04 in 10.0 mi South 17.3 mph 20.7 mph N/A   Clear
8:35 PM 41.0 °F 32.5 °F 28.4 °F 61% 30.04 in 10.0 mi South 17.3 mph - N/A   Clear
8:55 PM 41.0 °F 32.5 °F 28.4 °F 61% 30.04 in 10.0 mi South 17.3 mph 24.2 mph N/A   Clear
9:15 PM 41.0 °F 32.8 °F 28.4 °F 61% 30.05 in 10.0 mi South 16.1 mph - N/A   Clear
9:35 PM 41.0 °F 34.3 °F 28.4 °F 61% 30.06 in 10.0 mi SSW 11.5 mph - N/A   Clear
9:55 PM 41.0 °F 33.9 °F 28.4 °F 61% 30.06 in 10.0 mi South 12.7 mph - N/A   Clear
10:15 PM 42.8 °F 35.1 °F 28.4 °F 57% 30.05 in 10.0 mi South 16.1 mph 20.7 mph N/A   Clear
10:35 PM 42.8 °F 35.8 °F 28.4 °F 57% 30.05 in 10.0 mi South 13.8 mph - N/A   Clear
10:55 PM 42.8 °F 36.2 °F 28.4 °F 57% 30.04 in 10.0 mi South 12.7 mph - N/A   Clear
11:15 PM 41.0 °F 33.9 °F 28.4 °F 61% 30.04 in 10.0 mi South 12.7 mph - N/A   Clear
11:35 PM 41.0 °F 33.9 °F 28.4 °F 61% 30.04 in 10.0 mi South 12.7 mph - N/A   Clear
11:55 PM 41.0 °F 34.3 °F 28.4 °F 61% 30.04 in 10.0 mi South 11.5 mph - N/A   Clear